Regional Weather Roundup
Issued by NWS

Home | Current Version | Previous Version | Graphics & Text | Print | Product List | Glossary On
Versions: 1 2 3 4 5 6 7 8 9 10 11 12 13 14 15 16 17 18 19 20 21 22 23 24 25 26 27 28 29 30 31 32 33 34 35 36 37 38 39 40 41 42 43 44 45 46 47 48 49 50
604
ASUS44 KLIX 221401
RWRLA
LOUISIANA WEATHER ROUNDUP
NATIONAL WEATHER SERVICE NEW ORLEANS LA
900 AM CDT FRI AUG 22 2014

NOTE: "FAIR" INDICATES FEW OR NO CLOUDS BELOW 12,000 FEET WITH NO
      SIGNIFICANT WEATHER AND/OR OBSTRUCTIONS TO VISIBILITY.
      SKY/WX - SKY CONDITION AND SIGNIFICANT WEATHER.
      TMP - AIR TEMPERATURE.    DP   - DEWPOINT TEMPERATURE.
      RH  - RELATIVE HUMIDITY.  PRES - PRESSURE.
      HX  - HEAT INDEX.         WCI  - WIND CHILL INDEX.

*  THESE STATIONS ARE NOT NWS OR FAA STATIONS AND ARE NOT UNDER
   NWS QUALITY CONTROL.

LAZ040-048-061>063-065-066-069-221500-
SOUTHEAST LOUISIANA

CITY           SKY/WX    TMP DP  RH WIND       PRES   REMARKS
N.O. AUDUBON     N/A     87  78  72 MISG        N/A  HX 100
N.O. INTL ARPT MOSUNNY   84  75  74 W3        30.12R
N.O. LAKEFRONT SUNNY     85  75  72 NW5       30.12R
N.O. DOWNTOWN* FAIR      88  72  58 W5        30.12S
SLIDELL        SUNNY     83  72  69 NW6       30.11S
BATON ROUGE    PTSUNNY   80  76  87 NE3       30.12S
BOOTHVILLE     SUNNY     85  76  74 NW7       30.12S
BELLE CHASSE   PTSUNNY   85  74  69 CALM      30.11S
BOGALUSA*      FAIR      83  73  71 N3        30.14S
GALLIANO*      NOT AVBL
NEW ROADS*     FAIR      80  76  86 CALM      30.13R
GONZALES*      FAIR      81  79  92 CALM      30.11S
HAMMOND*       NOT AVBL
HOUMA*         SUNNY     82  73  74 CALM      30.12R
PORT FOURCHON* SUNNY     86  77  74 NE6       30.13S HX  97

$$

LAZ041-044-053-054-221500-
SOUTHWEST LOUISIANA

CITY           SKY/WX    TMP DP  RH WIND       PRES   REMARKS
LAKE CHARLES   SUNNY     84  78  82 CALM      30.10R HX  95
LAFAYETTE      SUNNY     81  77  88 CALM      30.11S
PATTERSON      SUNNY     84  79  84 E3        30.14S HX  96
SALT POINT       N/A     88  80  77 CALM      30.10S HX 104
NEW IBERIA     SUNNY     84  78  82 CALM      30.11S HX  95
CHENAULT AIRPK MOSUNNY   79  77  94 CALM      30.11R

$$

LAZ027-028-221500-
CENTRAL LOUISIANA

CITY           SKY/WX    TMP DP  RH WIND       PRES   REMARKS
FORT POLK      MOSUNNY   78  76  93 CALM      30.12R
ALEXANDRIA INT PTSUNNY   78  75  90 CALM      30.10R
ALEXANDRIA     MOSUNNY   81  75  82 CALM      30.12R

$$

LAZ001-002-221500-
NORTHWEST LOUISIANA

CITY           SKY/WX    TMP DP  RH WIND       PRES   REMARKS
SHREVEPORT     CLOUDY    80  74  81 SW14      30.09S
BARKSDALE AFB  MOSUNNY   81  74  78 SW13      30.10S
DTN SHREVEPORT MOSUNNY   80  74  81 SW13      30.09S

$$

LAZ014-016-221500-
NORTHEAST LOUISIANA

CITY           SKY/WX    TMP DP  RH WIND       PRES   REMARKS
MONROE         MOSUNNY   78  75  90 SW7       30.12S
TALLULAH       MOSUNNY   80  75  84 CALM      30.12R

$$




USA.gov is the U.S. government's official web portal to all federal, state and local government web resources and services.